Regional Weather Roundup
Issued by NWS Memphis, TN

Home | Current Version | Previous Version | Text Only | Print | Product List | Glossary On
Versions: 1 2 3 4 5 6 7 8 9 10 11 12 13 14 15 16 17 18 19 20 21 22 23 24 25 26 27 28 29 30 31 32 33 34 35 36 37 38 39 40 41 42 43 44 45 46 47 48 49 50
000
ASUS44 KMEG 221210
RWRMEG
MEMPHIS CWA HOURLY WEATHER ROUNDUP
NATIONAL WEATHER SERVICE MEMPHIS TN
700 AM CDT SUN OCT 22 2017

...WEST TENNESSEE...

CITY           SKY/WX    TMP DP  RH WIND       PRES   REMARKS
MEMPHIS INTL   PTCLDY    69  64  84 SE12      29.97F
6HR MIN TEMP:  69; 6HR MAX TEMP:  73;

NWS MEMPHIS      N/A     67 N/A N/A MISG        N/A
JACKSON        PTCLDY    68  61  78 S12G21    30.04S
6HR MIN TEMP:  68; 6HR MAX TEMP:  70;

COVINGTON      MOCLDY    68  63  83 S8G16     29.99F
SOMERVILLE     PTCLDY    68  63  83 S8G16     30.01F
BOLIVAR        MOCLDY    66  61  82 SE8       30.04S
LEXINGTON      PTCLDY    68  59  73 S10G18    30.07
SELMER         CLEAR     68  61  77 S14       30.07S
SAVANNAH       MOCLDY    66  59  77 S9G15     30.08S
DYERSBURG        N/A     68  62  81 SE8       30.01S
6HR MIN TEMP:  68; 6HR MAX TEMP:  70;

UNION CITY     MOCLDY    68  61  77 SE13G18   30.01F
HUNTINGDON     CLOUDY    68  61  77 S12G20    30.05S


...EASTERN ARKANSAS...

CITY           SKY/WX    TMP DP  RH WIND       PRES   REMARKS
JONESBORO      LGT RAIN  61  61 100 NW6       29.99R
6HR MIN TEMP:  61; 6HR MAX TEMP:  73; 6HR PCP:  0.20;

WEST MEMPHIS   PTCLDY    69  67  93 S17       29.95F
6HR MIN TEMP:  68; 6HR MAX TEMP:  73;

BATESVILLE     CLOUDY    60  59  96 S3        30.00R
6HR MIN TEMP:  59; 6HR MAX TEMP:  74; 6HR PCP:  0.79;

NEWPORT        LGT RAIN  60  58  92 NE5       30.00R
6HR MIN TEMP:  59; 6HR MAX TEMP:  73; 6HR PCP:  0.50;

WALNUT RIDGE   LGT RAIN  60  59  96 SW7       29.99R
6HR MIN TEMP:  60; 6HR MAX TEMP:  73; 6HR PCP:  0.39;

BLYTHEVILLE    PTCLDY    70  64  81 S16       29.98F
6HR MIN TEMP:  70; 6HR MAX TEMP:  72;

SEARCY         HVY RAIN  61  61 100 S3        30.02R FOG
6HR MIN TEMP:  61; 6HR MAX TEMP:  75;

STUTTGART      LGT RAIN  61  59  93 W8        30.04R
6HR MIN TEMP:  60; 6HR MAX TEMP:  75; 6HR PCP:  0.87;

PINE BLUFF     LGT RAIN  60  59  96 W5        30.04R
6HR MIN TEMP:  60; 6HR MAX TEMP:  75; 6HR PCP:  0.53;

MONTICELLO     LGT RAIN  60  58  92 VRB3      30.04S
6HR MIN TEMP:  60; 6HR MAX TEMP:  74; 6HR PCP:  0.42;



...NORTH MISSISSIPPI...

CITY           SKY/WX    TMP DP  RH WIND       PRES   REMARKS
TUPELO         LGT RAIN  67  60  78 SE10      30.07S
6HR MIN TEMP:  67; 6HR MAX TEMP:  70; 6HR PCP:  0.01;

BATESVILLE     CLEAR     67  63  85 SE6       30.03F
6HR MIN TEMP:  67; 6HR MAX TEMP:  73;

OLIVE BRANCH   MOCLDY   N/A N/A N/A S8        29.99
TUNICA           N/A    N/A N/A N/A SE12      29.98F
CLARKSDALE       N/A     70  68  94 SE12      29.97F
CORINTH        CLOUDY    68  59  73 SE12G17   30.07F
GREENWOOD      CLOUDY    73  65  75 SE10      30.02S
6HR MIN TEMP:  72; 6HR MAX TEMP:  75;

COLUMBUS       CLOUDY    66  62  89 E10       30.09S
6HR MIN TEMP:  66; 6HR MAX TEMP:  68;

STARKVILLE     PTCLDY    64  61  88 SE7       30.10S
GOLDEN TRIANGL PTCLDY    67  62  84 SE13      30.10S
6HR MIN TEMP:  67; 6HR MAX TEMP:  70;



...SOUTHEAST MISSOURI...

CITY           SKY/WX    TMP DP  RH WIND       PRES   REMARKS
KENNETT        MOCLDY    72  64  78 S16G24    29.93F
MALDEN         CLOUDY    72  63  73 S20G26    29.95S
WEST PLAINS    CLOUDY    59  57  93 N5        29.97R
6HR MIN TEMP:  58; 6HR MAX TEMP:  72; 6HR PCP:  0.41;

POPLAR BLUFF   CLOUDY    71  65  81 S14G26    29.92R
6HR MIN TEMP:  70; 6HR MAX TEMP:  72; 6HR PCP: TRACE;

CAPE GIRARDEAU CLOUDY    67  63  87 SE18G29   29.95F
6HR MIN TEMP:  67; 6HR MAX TEMP:  70; 6HR PCP:  0.04;



...NORTHWEST ALABAMA...

CITY           SKY/WX    TMP DP  RH WIND       PRES   REMARKS
MUSCLE SHOALS  PTCLDY    62  57  83 SE7       30.15S
6HR MIN TEMP:  62; 6HR MAX TEMP:  66;



...MIDDLE TENNESSEE...

CITY           SKY/WX    TMP DP  RH WIND       PRES   REMARKS
NASHVILLE      MOCLDY    64  53  67 SE13      30.14S
6HR MIN TEMP:  62; 6HR MAX TEMP:  66;

CLARKSVILLE    PTCLDY    63  54  72 SE9       30.09F
6HR MIN TEMP:  61; 6HR MAX TEMP:  64;

COLUMBIA       PTCLDY    64  55  72 S6        30.12S


...WESTERN KENTUCKY...

CITY           SKY/WX    TMP DP  RH WIND       PRES   REMARKS
PADUCAH        CLOUDY    67  59  75 S8        30.01S
6HR MIN TEMP:  67; 6HR MAX TEMP:  70; 6HR PCP: TRACE;

FORT CAMPBELL  CLOUDY    63  55  76 SE8       30.08S
6HR MIN TEMP:  63; 6HR MAX TEMP:  64;



...CENTRAL ARKANSAS...

CITY           SKY/WX    TMP DP  RH WIND       PRES   REMARKS
LITTLE ROCK    LGT RAIN  59  59 100 S3        30.03R
6HR MIN TEMP:  59; 6HR MAX TEMP:  74; 6HR PCP:  0.47;



SKY/WX REPORTED AS FAIR MEANS FEW OR NO CLOUDS BELOW
12 THOUSAND FEET.




USA.gov is the U.S. government's official web portal to all federal, state and local government web resources and services.